Starlink 11272

operational
NORAD ID: 60723 Int'l Des: 2024-152 Owner: SPXS Country: US Constellation: starlink
LEOCIRCULAR

About Starlink 11272

Description loading...

Live Position

Loading 3D Globe...

Upcoming Passes

Altitude History

Altitude vs Time

uPlot chart will show altitude changes over time

Two-Line Element Set

1 60723U 24152D 26015.26984965 .00000365 00000-0 78701-5 0 9997
2 60723 53.1578 19.6883 0001080 100.2775 259.8365 15.69712735 80445
Epoch: Jan 15, 2026 • Age: 22 hours

Current Status

Altitude 363.0 km
Velocity 7.70 km/s
Sub-Earth Point 40.69°N, 122.03°W
Launch Date Aug 28, 2024
Age 1.3 years
Type internet

Technical Details

Classification Payload
Mass 960.00 kg
Dry Mass 910.00 kg
Total Mass 960.00 kg
Length 0.30 m
Diameter 4.10 m
Span 29.00 m
Shape Box + pan
Manufacturer SPXS
Bus Type Starlink V2MD
Phase Status In Orbit
Owner/State SPXS/US

Large Constellations

Loading constellations...